Amarillo, TX

9:20 PM CDT on October 18, 2019 (GMT -0500)
Amarillo International

Weather History for KAMA - April, 2019

Change the Weather History Date:

Tuesday, April 30, 2019

  Actual Average Record
Temperature  
Mean Temperature 55 °F 61 °F  
Max Temperature 63 °F 75 °F 97 °F (2013)
Min Temperature 46 °F 46 °F 23 °F (1907)
Degree Days  
Heating Degree Days 10 6  
Month to date heating degree days 213 281  
Since 1 July heating degree days 3983 4088  
Cooling Degree Days 0 1  
Month to date cooling degree days 14 19  
Year to date cooling degree days 16 21  
Growing Degree Days 4 (Base 50)    
Moisture  
Dew Point 48 °F    
Average Humidity 83    
Maximum Humidity 93    
Minimum Humidity 72    
Precipitation  
Precipitation 0.29 in 0.05 in 2.65 in (1999)
Month to date precipitation 1.64 1.40  
Year to date precipitation 4.09 4.07  
Snow  
Snow 0.00 in 0.00 in 0.80 in (2017)
Month to date snowfall 0.0 0.7  
Since 1 July snowfall 8.1 17.6  
Snow Depth 0.00 in    
Sea Level Pressure  
Sea Level Pressure 29.87 in    
Wind  
Wind Speed 8 mph (NE)    
Max Wind Speed 22 mph    
Max Gust Speed 29 mph    
Visibility 7 miles    
Events Rain , Thunderstorm    
T = Trace of Precipitation, MM = Missing Value Source: NWS Daily Summary

Daily Weather History Graph

Daily Weather History Graph

Search for Another Location

Airport or City:

Astronomy

Apr. 30, 2019 Rise Set
Actual Time 6:56 AM CDT 8:31 PM CDT
Civil Twilight 6:29 AM CDT 8:58 PM CDT
Nautical Twilight 5:57 AM CDT 9:31 PM CDT
Astronomical Twilight 5:23 AM CDT 10:05 PM CDT
Moon 5:01 AM CDT (4/30) 4:36 PM CDT (4/30)
Length of Visible Light 14h 29m
Length of Day
13h 34m
Waning Crescent, 17% of the Moon is Illuminated
Apr 30
Waning Crescent
May 4
New
May 11
First Quarter
May 18
Full
May 26
Last Quarter

Hourly Weather History & Observations

Time (CDT) Temp. Windchill Dew Point Humidity Pressure Visibility Wind Dir Wind Speed Gust Speed Precip Events Conditions
12:53 AM 51.1 °F - 45.0 °F 80% 29.95 in 10.0 mi NNE 9.2 mph - N/A   Overcast
1:43 AM 48.9 °F - 46.0 °F 90% 30.00 in 9.0 mi NNE 15.0 mph - N/A   Overcast
1:53 AM 48.9 °F - 46.0 °F 90% 29.94 in 5.0 mi NNE 11.5 mph - N/A   Overcast
2:04 AM 48.9 °F - 46.0 °F 90% 29.99 in 3.0 mi NNE 11.5 mph - N/A   Overcast
2:30 AM 48.0 °F - 46.0 °F 93% 29.98 in 4.0 mi NNE 11.5 mph - N/A   Overcast
2:53 AM 48.0 °F - 45.0 °F 89% 29.90 in 4.0 mi NE 11.5 mph - N/A   Overcast
3:00 AM 48.0 °F - 45.0 °F 89% 29.96 in 5.0 mi NNE 8.1 mph - N/A   Overcast
3:53 AM 46.9 °F - 44.1 °F 90% 29.88 in 6.0 mi NNE 11.5 mph - N/A   Overcast
4:21 AM 46.9 °F - 44.1 °F 90% 29.94 in 8.0 mi NNE 11.5 mph - N/A   Overcast
4:53 AM 46.9 °F - 44.1 °F 90% 29.87 in 9.0 mi NNE 8.1 mph - N/A   Overcast
5:35 AM 46.0 °F 41.4 °F 44.1 °F 93% 29.92 in 2.5 mi NE 9.2 mph - 0.00 in   Overcast
5:53 AM 46.0 °F 41.9 °F 44.1 °F 93% 29.87 in 3.0 mi North 8.1 mph - 0.00 in   Overcast
6:49 AM 46.4 °F 42.9 °F 44.6 °F 93% 29.95 in 2.5 mi North 6.9 mph - N/A   Overcast
6:53 AM 46.0 °F 41.9 °F 44.1 °F 93% 29.90 in 2.0 mi North 8.1 mph - 0.00 in Rain Light Rain
7:05 AM 46.0 °F 39.9 °F 44.1 °F 93% 29.98 in 2.0 mi WNW 13.8 mph 24.2 mph 0.01 in Thunderstorm Overcast
7:18 AM 46.0 °F 41.4 °F 44.1 °F 93% 29.98 in 1.8 mi NNW 9.2 mph 25.3 mph 0.06 in Rain , Thunderstorm Rain
7:22 AM 46.0 °F 41.9 °F 44.1 °F 93% 29.96 in 3.0 mi North 8.1 mph - 0.07 in Rain , Thunderstorm Light Rain
7:26 AM 46.0 °F 41.4 °F 44.1 °F 93% 29.95 in 3.0 mi NNE 9.2 mph - 0.07 in Rain Light Rain
7:33 AM 46.0 °F 41.0 °F 44.1 °F 93% 29.94 in 5.0 mi NNE 10.4 mph - 0.07 in Rain Light Rain
7:53 AM 46.0 °F 39.9 °F 44.1 °F 93% 29.86 in 4.0 mi ENE 13.8 mph - 0.07 in   Overcast
8:49 AM 48.2 °F - 46.4 °F 93% 29.91 in 10.0 mi ENE 11.5 mph - N/A   Overcast
8:53 AM 48.0 °F - 45.0 °F 89% 29.85 in 10.0 mi ENE 11.5 mph - N/A   Overcast
9:24 AM 48.0 °F - 46.0 °F 93% 29.88 in 10.0 mi ENE 12.7 mph - N/A Thunderstorm Mostly Cloudy
9:33 AM 48.0 °F - 45.0 °F 89% 29.87 in 9.0 mi ENE 11.5 mph - 0.00 in Rain , Thunderstorm Light Thunderstorms and Rain
9:53 AM 48.0 °F - 46.0 °F 93% 29.80 in 7.0 mi NNE 10.4 mph - 0.11 in Rain , Thunderstorm Light Rain
10:00 AM 48.0 °F - 46.0 °F 93% 29.87 in 10.0 mi North 8.1 mph - 0.00 in Rain , Thunderstorm Light Rain
10:15 AM 48.0 °F - 46.0 °F 93% 29.94 in 10.0 mi Variable 4.6 mph - 0.00 in Thunderstorm Overcast
10:30 AM 48.9 °F - 46.0 °F 90% 29.90 in 10.0 mi ENE 9.2 mph - 0.01 in Rain , Thunderstorm Light Thunderstorms and Rain
10:46 AM 48.9 °F - 46.0 °F 90% 29.89 in 4.0 mi ESE 11.5 mph - 0.08 in Rain , Thunderstorm Light Thunderstorms and Rain
10:53 AM 48.9 °F - 46.9 °F 93% 29.84 in 7.0 mi North 6.9 mph - 0.09 in Rain , Thunderstorm Light Rain
11:13 AM 48.9 °F - 46.0 °F 90% 29.89 in 10.0 mi NNW 6.9 mph - 0.00 in Thunderstorm Overcast
11:27 AM 48.9 °F - 46.9 °F 93% 29.91 in 4.0 mi WNW 5.8 mph - 0.01 in Rain Light Rain
11:30 AM 48.9 °F - 46.9 °F 93% 29.91 in 3.0 mi West 4.6 mph - 0.01 in Rain , Thunderstorm Light Rain
11:43 AM 50.0 °F - 48.0 °F 93% 29.90 in 5.0 mi Calm Calm - 0.02 in Rain , Thunderstorm Light Rain
11:46 AM 50.0 °F - 48.0 °F 93% 29.90 in 3.0 mi Calm Calm - 0.02 in   Overcast
11:53 AM 50.0 °F - 46.9 °F 89% 29.85 in 3.0 mi Calm Calm - 0.02 in   Overcast
12:32 PM 51.1 °F - 48.0 °F 89% 29.90 in 6.0 mi Calm Calm - 0.00 in   Overcast
12:44 PM 51.1 °F - 48.0 °F 89% 29.91 in 6.0 mi Calm Calm - 0.00 in   Overcast
12:53 PM 51.1 °F - 48.0 °F 89% 29.85 in 6.0 mi Calm Calm - 0.00 in   Overcast
1:14 PM 51.1 °F - 48.9 °F 92% 29.89 in 2.5 mi Calm Calm - N/A   Overcast
1:43 PM 53.1 °F - 50.0 °F 89% 29.87 in 2.0 mi SSE 6.9 mph - N/A   Overcast
1:53 PM 54.0 °F - 50.0 °F 86% 29.81 in 10.0 mi South 6.9 mph - N/A   Overcast
2:53 PM 55.0 °F - 51.1 °F 86% 29.79 in 10.0 mi South 5.8 mph - N/A   Overcast
3:53 PM 57.0 °F - 52.0 °F 83% 29.78 in 10.0 mi SSW 9.2 mph - N/A   Overcast
4:20 PM 57.9 °F - 52.0 °F 81% 29.83 in 10.0 mi SSW 10.4 mph - N/A   Overcast
4:53 PM 59.0 °F - 53.1 °F 81% 29.75 in 10.0 mi SSW 8.1 mph - N/A   Overcast
5:37 PM 61.0 °F - 54.0 °F 78% 29.81 in 10.0 mi South 6.9 mph - N/A   Mostly Cloudy
5:53 PM 61.0 °F - 54.0 °F 78% 29.74 in 10.0 mi ESE 4.6 mph - N/A   Partly Cloudy
6:53 PM 63.0 °F - 54.0 °F 72% 29.71 in 10.0 mi East 5.8 mph - N/A   Partly Cloudy
7:53 PM 61.0 °F - 55.0 °F 81% 29.71 in 10.0 mi SE 9.2 mph - N/A   Clear
8:53 PM 59.0 °F - 55.0 °F 87% 29.72 in 10.0 mi SSE 10.4 mph - N/A   Clear
9:53 PM 57.0 °F - 54.0 °F 89% 29.75 in 10.0 mi SE 6.9 mph - N/A   Clear
10:53 PM 55.0 °F - 53.1 °F 93% 29.78 in 9.0 mi South 9.2 mph - N/A   Clear
11:53 PM 55.0 °F - 53.1 °F 93% 29.79 in 10.0 mi ESE 12.7 mph - N/A   Clear